Charlottetown, Prince Edward Island

1:05 PM AST on December 18, 2017 (GMT -0400)
Charlottetown

Weather History for CYYG - August, 2013

Change the Weather History Date:

Thursday, August 22, 2013

  Actual Average Record
Temperature  
Mean Temperature 76 °F -  
Max Temperature 83 °F 66 °F 83 °F (2013)
Min Temperature 68 °F 50 °F 46 °F (2007)
Cooling Degree Days 10    
Growing Degree Days 26 (Base 50)    
Moisture  
Dew Point 62 °F    
Average Humidity 66    
Maximum Humidity 78    
Minimum Humidity 42    
Precipitation  
Precipitation 0.00 in 0.12 in - ()
Sea Level Pressure  
Sea Level Pressure 29.85 in    
Wind  
Wind Speed 12 mph ()    
Max Wind Speed 21 mph    
Max Gust Speed 31 mph    
Visibility 15.0 miles    
Events      
Averages and records for this station are not official NWS values.
T = Trace of Precipitation, MM = Missing Value Source: Averaged Metar Reports

Daily Weather History Graph

Daily Weather History Graph

Search for Another Location

Airport or City:

Trip Planner

Search our weather history database for the weather conditions in past years. The results will help you decide how hot, cold, wet, or windy it might be!

Date:

Astronomy

Aug. 22, 2013 Rise Set
Actual Time 6:20 AM ADT 8:09 PM ADT
Civil Twilight 5:48 AM ADT 8:41 PM ADT
Nautical Twilight 5:09 AM ADT 9:20 PM ADT
Astronomical Twilight 4:26 AM ADT 10:02 PM ADT
Moon 8:39 PM ADT (8/22) 8:13 AM ADT (8/22)
Length of Visible Light 14h 52m
Length of Day
13h 48m
Full, 97% of the Moon is Illuminated
Aug 22
Full
Aug 28
Last Quarter
Sep 5
New
Sep 12
First Quarter
Sep 19
Full

Hourly Weather History & Observations

Time (ADT) Temp. Heat Index Dew Point Humidity Pressure Visibility Wind Dir Wind Speed Gust Speed Precip Events Conditions
12:00 AM 69.8 °F - 60.8 °F 73% 29.96 in 15.0 mi SW 12.7 mph - N/A   Partly Cloudy
1:00 AM 68.0 °F - 60.8 °F 78% 29.96 in 15.0 mi SW 9.2 mph - N/A   Partly Cloudy
2:00 AM 68.0 °F - 60.8 °F 78% 29.94 in 15.0 mi SSW 11.5 mph - N/A   Clear
3:00 AM 68 °F - 61 °F 73% 29.93 in 15 mi SW 10.4 mph - -  
3:00 AM 68.0 °F - 60.8 °F 78% 29.92 in 15.0 mi SW 9.2 mph - N/A   Clear
4:00 AM 68.0 °F - 60.8 °F 78% 29.91 in 15.0 mi SW 11.5 mph 17.3 mph N/A   Clear
5:00 AM 68.0 °F - 60.8 °F 78% 29.90 in 15.0 mi SW 10.4 mph 19.6 mph N/A   Clear
6:00 AM 68.0 °F - 60.8 °F 78% 29.89 in 15.0 mi SW 10.4 mph - N/A   Clear
7:00 AM 68.0 °F - 60.8 °F 78% 29.88 in 15.0 mi SW 12.7 mph - N/A   Partly Cloudy
8:00 AM 69.8 °F - 60.8 °F 73% 29.89 in 15.0 mi SW 15.0 mph 20.7 mph N/A   Partly Cloudy
9:00 AM 69.8 °F - 62.6 °F 78% 29.88 in 15.0 mi SW 16.1 mph 23.0 mph N/A   Partly Cloudy
10:00 AM 71.6 °F - 62.6 °F 73% 29.87 in 15.0 mi SW 17.3 mph 24.2 mph N/A   Partly Cloudy
11:00 AM 75.2 °F - 62.6 °F 65% 29.86 in 15.0 mi SW 16.1 mph 23.0 mph N/A   Partly Cloudy
12:00 PM 78.8 °F - 64.4 °F 61% 29.85 in 15.0 mi SSW 13.8 mph 21.9 mph N/A   Partly Cloudy
1:00 PM 80.6 °F 82.3 °F 64.4 °F 58% 29.83 in 15.0 mi SW 18.4 mph 25.3 mph N/A   Partly Cloudy
2:00 PM 82.4 °F 83.9 °F 64.4 °F 54% 29.81 in 15.0 mi SSW 20.7 mph 28.8 mph N/A   Partly Cloudy
3:00 PM 83 °F - 64 °F 42% 29.79 in 15 mi SW 20.7 mph - -   Clear
3:00 PM 82.4 °F 83.9 °F 64.4 °F 54% 29.79 in 15.0 mi SW 19.6 mph 31.1 mph N/A   Scattered Clouds
4:00 PM 82.4 °F 83.9 °F 64.4 °F 54% 29.79 in 15.0 mi SW 18.4 mph 28.8 mph N/A   Mostly Cloudy
5:00 PM 80.6 °F 82.3 °F 64.4 °F 58% 29.79 in 15.0 mi SW 16.1 mph 27.6 mph N/A   Mostly Cloudy
6:00 PM 80.6 °F 82.3 °F 64.4 °F 58% 29.78 in 15.0 mi WSW 12.7 mph 21.9 mph N/A   Mostly Cloudy
7:00 PM 78.8 °F - 62.6 °F 57% 29.78 in 15.0 mi SW 10.4 mph 23.0 mph N/A   Mostly Cloudy
8:00 PM 75.2 °F - 62.6 °F 65% 29.78 in 15.0 mi WSW 8.1 mph - N/A   Mostly Cloudy
9:00 PM 75 °F - 61 °F 53% 29.78 in 15 mi SW 10.4 mph - -   Mostly Cloudy
9:00 PM 75.2 °F - 60.8 °F 61% 29.78 in 15.0 mi SW 11.5 mph 17.3 mph N/A   Mostly Cloudy
10:00 PM 73.4 °F - 62.6 °F 69% 29.78 in 15.0 mi SW 8.1 mph - N/A   Overcast
11:00 PM 71.6 °F - 60.8 °F 69% 29.78 in 15.0 mi SW 12.7 mph - N/A   Scattered Clouds